North Bend, OR

10:05 PM PDT on March 26, 2017 (GMT -0700)
North Bend Municipal

Weather History for KOTH - July, 2013

Change the Weather History Date:

Tuesday, July 2, 2013

  Actual Average Record
Temperature  
Mean Temperature 68 °F 58 °F  
Max Temperature 75 °F 64 °F 82 °F (1922)
Min Temperature 61 °F 52 °F 41 °F (1962)
Degree Days  
Heating Degree Days 0 7  
Month to date heating degree days 0 14  
Since 1 June heating degree days 171 281  
Since 1 July heating degree days 0 14  
Cooling Degree Days 3 0  
Month to date cooling degree days 6 0  
Year to date cooling degree days 26 0  
Since 1 June cooling degree days 22 0  
Growing Degree Days 18 (Base 50)    
Moisture  
Dew Point 66 °F    
Average Humidity 90    
Maximum Humidity 100    
Minimum Humidity 73    
Precipitation  
Precipitation 0.00 in 0.03 in 0.46 in (1966)
Month to date precipitation 0.00 0.05  
Year to date precipitation 17.49 36.17  
Sea Level Pressure  
Sea Level Pressure 30.09 in    
Wind  
Wind Speed 15 mph (NNE)    
Max Wind Speed 25 mph    
Max Gust Speed 33 mph    
Visibility 8 miles    
Events      
T = Trace of Precipitation, MM = Missing Value Source: NWS Daily Summary

Daily Weather History Graph

Daily Weather History Graph

Search for Another Location

Airport or City:

Trip Planner

Search our weather history database for the weather conditions in past years. The results will help you decide how hot, cold, wet, or windy it might be!

Date:

Astronomy

Jul. 02, 2013 Rise Set
Actual Time 5:40 AM PDT 9:01 PM PDT
Civil Twilight 5:05 AM PDT 9:36 PM PDT
Nautical Twilight 4:19 AM PDT 10:22 PM PDT
Astronomical Twilight 3:22 AM PDT 11:19 PM PDT
Moon 1:51 AM PDT (7/2) 4:16 PM PDT (7/2)
Length of Visible Light 16h 31m
Length of Day
15h 20m
Waning Crescent, 25% of the Moon is Illuminated
Jul 2
Waning Crescent
Jul 8
New
Jul 15
First Quarter
Jul 22
Full
Jul 29
Last Quarter

Hourly Weather History & Observations

Time (PDT) Temp. Dew Point Humidity Pressure Visibility Wind Dir Wind Speed Gust Speed Precip Events Conditions
12:15 AM 68.0 °F 66.2 °F 94% 30.09 in 7.0 mi NNE 15.0 mph 19.6 mph N/A   Overcast
12:35 AM 66.2 °F 64.4 °F 94% 30.09 in 10.0 mi NNE 11.5 mph - N/A   Overcast
12:55 AM 64.4 °F 64.4 °F 100% 30.08 in 8.0 mi NNE 15.0 mph - N/A   Overcast
1:15 AM 66.2 °F 66.2 °F 100% 30.08 in 6.0 mi NE 11.5 mph - N/A   Overcast
1:35 AM 66.2 °F 66.2 °F 100% 30.08 in 5.0 mi NNE 10.4 mph - N/A   Overcast
1:55 AM 66.2 °F 64.4 °F 94% 30.07 in 5.0 mi NNE 11.5 mph - N/A   Overcast
2:15 AM 68.0 °F 68.0 °F 100% 30.08 in 7.0 mi NNE 10.4 mph - N/A   Overcast
2:35 AM 66.2 °F 66.2 °F 100% 30.07 in 5.0 mi NE 9.2 mph - N/A   Overcast
2:55 AM 66.2 °F 66.2 °F 100% 30.08 in 7.0 mi NNE 11.5 mph - N/A   Overcast
3:15 AM 66.2 °F 66.2 °F 100% 30.08 in 4.0 mi NNE 12.7 mph 17.3 mph N/A   Overcast
3:35 AM 69.8 °F 69.8 °F 100% 30.08 in 5.0 mi NNE 9.2 mph - N/A   Overcast
3:55 AM 66.2 °F 66.2 °F 100% 30.08 in 4.0 mi North 11.5 mph - N/A   Overcast
4:15 AM 66.2 °F 64.4 °F 94% 30.08 in 3.0 mi North 13.8 mph 19.6 mph N/A   Overcast
4:35 AM 68.0 °F 68.0 °F 100% 30.08 in 3.0 mi North 12.7 mph 18.4 mph N/A   Overcast
4:55 AM 66.2 °F 66.2 °F 100% 30.09 in 3.0 mi NNE 15.0 mph 20.7 mph N/A   Overcast
5:15 AM 66.2 °F 66.2 °F 100% 30.09 in 9.0 mi NNE 10.4 mph - N/A   Overcast
5:35 AM 66.2 °F 66.2 °F 100% 30.09 in 10.0 mi NNE 9.2 mph 17.3 mph N/A   Overcast
5:55 AM 68.0 °F 66.2 °F 94% 30.09 in 10.0 mi NE 6.9 mph - N/A   Overcast
6:15 AM 66.2 °F 66.2 °F 100% 30.10 in 10.0 mi NNE 6.9 mph - N/A   Overcast
6:35 AM 66.2 °F 64.4 °F 94% 30.10 in 10.0 mi NE 11.5 mph - N/A   Overcast
7:15 AM 66.2 °F 66.2 °F 100% 30.10 in 10.0 mi NE 11.5 mph - N/A   Overcast
7:35 AM 66.2 °F 66.2 °F 100% 30.10 in 3.0 mi NE 9.2 mph - N/A   Overcast
7:55 AM 62.6 °F 62.6 °F 100% 30.11 in 3.0 mi NNE 8.1 mph - N/A   Overcast
8:15 AM 64.4 °F 62.6 °F 94% 30.11 in 3.0 mi ENE 4.6 mph - N/A   Overcast
8:35 AM 60.8 °F 60.8 °F 100% 30.11 in 3.0 mi NE 6.9 mph - N/A   Overcast
8:55 AM 66.2 °F 66.2 °F 100% 30.11 in 4.0 mi NNE 9.2 mph - N/A   Overcast
9:15 AM 69.8 °F 68.0 °F 94% 30.10 in 5.0 mi NNE 8.1 mph - N/A   Overcast
9:35 AM 69.8 °F 66.2 °F 88% 30.10 in 5.0 mi North 6.9 mph - N/A   Overcast
9:55 AM 68.0 °F 66.2 °F 94% 30.09 in 5.0 mi Calm Calm - N/A   Overcast
10:15 AM 69.8 °F 66.2 °F 88% 30.09 in 5.0 mi Calm Calm - N/A   Overcast
10:35 AM 69.8 °F 66.2 °F 88% 30.09 in 5.0 mi NNE 3.5 mph - N/A   Overcast
10:55 AM 69.8 °F 64.4 °F 83% 30.09 in 10.0 mi North 9.2 mph - N/A   Overcast
11:15 AM 64.4 °F 60.8 °F 88% 30.09 in 10.0 mi North 13.8 mph - N/A   Overcast
11:35 AM 68.0 °F 64.4 °F 88% 30.10 in 10.0 mi NNE 9.2 mph - N/A   Overcast
11:55 AM 69.8 °F 64.4 °F 83% 30.10 in 10.0 mi North 19.6 mph 24.2 mph N/A   Overcast
12:15 PM 64.4 °F 60.8 °F 88% 30.10 in 10.0 mi NNE 19.6 mph 27.6 mph N/A   Overcast
12:35 PM 66.2 °F 60.8 °F 83% 30.09 in 10.0 mi NNE 24.2 mph 31.1 mph N/A   Overcast
12:55 PM 66.2 °F 60.8 °F 83% 30.09 in 10.0 mi NNE 24.2 mph 29.9 mph N/A   Mostly Cloudy
1:15 PM 69.8 °F 62.6 °F 78% 30.10 in 10.0 mi North 24.2 mph 32.2 mph N/A   Scattered Clouds
1:35 PM 71.6 °F 64.4 °F 78% 30.10 in 10.0 mi North 24.2 mph 29.9 mph N/A   Clear
1:55 PM 71.6 °F 64.4 °F 78% 30.11 in 10.0 mi NNE 21.9 mph 31.1 mph N/A   Clear
2:15 PM 71.6 °F 64.4 °F 78% 30.11 in 10.0 mi NNE 24.2 mph 31.1 mph N/A   Scattered Clouds
2:35 PM 73.4 °F 64.4 °F 73% 30.11 in 10.0 mi NNE 23.0 mph 32.2 mph N/A   Partly Cloudy
2:55 PM 73.4 °F 64.4 °F 73% 30.10 in 10.0 mi NNE 25.3 mph 33.4 mph N/A   Partly Cloudy
3:15 PM 73.4 °F 66.2 °F 78% 30.10 in 10.0 mi North 25.3 mph 32.2 mph N/A   Partly Cloudy
3:35 PM 73.4 °F 64.4 °F 73% 30.10 in 10.0 mi NNE 20.7 mph 28.8 mph N/A   Clear
3:55 PM 73.4 °F 64.4 °F 73% 30.09 in 10.0 mi NNE 21.9 mph 28.8 mph N/A   Clear
4:15 PM 73.4 °F 66.2 °F 78% 30.10 in 10.0 mi NNE 24.2 mph 32.2 mph N/A   Clear
4:35 PM 73.4 °F 66.2 °F 78% 30.10 in 10.0 mi NNE 23.0 mph 32.2 mph N/A   Clear
4:55 PM 73.4 °F 66.2 °F 78% 30.09 in 10.0 mi NNE 25.3 mph 32.2 mph N/A   Clear
5:15 PM 71.6 °F 66.2 °F 83% 30.09 in 10.0 mi North 21.9 mph 32.2 mph N/A   Partly Cloudy
5:35 PM 69.8 °F 64.4 °F 83% 30.09 in 10.0 mi NNE 20.7 mph 33.4 mph N/A   Mostly Cloudy
5:55 PM 71.6 °F 64.4 °F 78% 30.09 in 10.0 mi NNE 18.4 mph 32.2 mph N/A   Overcast
6:15 PM 71.6 °F 66.2 °F 83% 30.09 in 10.0 mi NNE 20.7 mph 31.1 mph N/A   Overcast
6:35 PM 75.2 °F 69.8 °F 83% 30.08 in 10.0 mi NNE 19.6 mph 31.1 mph N/A   Overcast
6:55 PM 71.6 °F 68.0 °F 88% 30.08 in 10.0 mi NNE 18.4 mph 24.2 mph N/A   Overcast
7:15 PM 69.8 °F 66.2 °F 88% 30.08 in 10.0 mi NNE 19.6 mph 26.5 mph N/A   Overcast
7:35 PM 69.8 °F 66.2 °F 88% 30.09 in 10.0 mi NNE 20.7 mph 31.1 mph N/A   Overcast
7:55 PM 73.4 °F 69.8 °F 88% 30.09 in 10.0 mi NNE 18.4 mph 26.5 mph N/A   Overcast
8:15 PM 71.6 °F 69.8 °F 94% 30.08 in 10.0 mi NNE 20.7 mph 25.3 mph N/A   Overcast
8:35 PM 69.8 °F 66.2 °F 88% 30.09 in 10.0 mi NNE 12.7 mph - N/A   Partly Cloudy
8:55 PM 69.8 °F 66.2 °F 88% 30.09 in 10.0 mi North 15.0 mph - N/A   Clear
9:15 PM 71.6 °F 68.0 °F 88% 30.09 in 10.0 mi NNE 15.0 mph - N/A   Clear
9:35 PM 69.8 °F 66.2 °F 88% 30.09 in 10.0 mi NNE 15.0 mph - N/A   Clear
9:55 PM 71.6 °F 69.8 °F 94% 30.11 in 10.0 mi North 17.3 mph 21.9 mph N/A   Clear
10:15 PM 64.4 °F 62.6 °F 94% 30.11 in 10.0 mi North 15.0 mph 23.0 mph N/A   Scattered Clouds
10:35 PM 66.2 °F 64.4 °F 94% 30.12 in 10.0 mi NNE 11.5 mph 16.1 mph N/A   Overcast
10:55 PM 69.8 °F 66.2 °F 88% 30.11 in 10.0 mi NNE 17.3 mph 21.9 mph N/A   Overcast
11:15 PM 71.6 °F 69.8 °F 94% 30.11 in 10.0 mi NNE 18.4 mph 23.0 mph N/A   Overcast
11:35 PM 73.4 °F 69.8 °F 88% 30.12 in 10.0 mi NE 12.7 mph 20.7 mph N/A   Overcast
11:55 PM 66.2 °F 64.4 °F 94% 30.12 in 10.0 mi NNE 12.7 mph - N/A   Overcast